Total_Precipitation_Accumulation
0.09 0.29 0.65 0.99 1.69 2.03 1.55 0.88 0.56 0.35 0.38 0.47 0.58 0.71 0.75 0.91 1.30 2.13 1.96 1.57 1.48 1.69 1.77 1.84 1.94 1.81 1.94 2.09 2.12 2.24 2.52 2.68 2.66 2.41 2.41 2.66 2.93 3.14 3.24 3.15 3.13 3.34 3.75 3.93 3.77 3.53 3.37 3.22 3.07
0.21 0.56 0.89 1.35 1.92 1.66 1.25 0.72 0.41 0.30 0.31 0.42 0.48 0.47 0.49 0.54 0.62 1.01 1.46 1.41 1.26 1.35 1.40 1.50 1.73 1.73 1.73 1.87 1.95 2.06 2.24 2.45 2.50 2.39 2.31 2.56 2.86 3.12 3.32 3.31 3.18 3.35 3.71 4.03 3.90 3.62 3.44 3.19 2.94
0.41 0.69 1.07 1.57 1.45 1.08 0.87 0.50 0.36 0.34 0.40 0.49 0.47 0.43 0.51 0.74 0.67 0.91 1.21 1.19 1.16 1.23 1.31 1.61 1.70 1.65 1.64 1.68 1.77 1.93 2.02 2.14 2.25 2.30 2.40 2.64 2.93 3.20 3.28 3.18 3.13 3.19 3.43 3.78 3.91 3.49 3.03 2.80 2.70
0.57 0.85 1.06 1.19 0.87 0.65 0.55 0.42 0.33 0.31 0.47 0.60 0.63 0.53 0.52 0.65 0.71 0.86 1.01 1.05 1.18 1.34 1.38 1.54 1.67 1.54 1.55 1.59 1.65 1.82 1.92 2.02 2.20 2.31 2.41 2.75 3.01 3.16 3.19 3.00 2.93 3.03 3.15 3.39 3.47 3.11 2.66 2.54 2.64
0.72 1.04 1.24 0.84 0.58 0.49 0.44 0.36 0.30 0.30 0.40 0.61 0.71 0.76 0.83 0.88 0.77 0.79 0.90 0.97 1.06 1.23 1.39 1.51 1.57 1.41 1.39 1.41 1.50 1.72 1.85 1.99 2.20 2.30 2.46 2.76 3.04 3.14 3.17 3.03 3.08 3.05 3.12 3.27 3.09 2.84 2.68 2.80 2.79
0.82 1.03 0.94 0.63 0.42 0.37 0.33 0.30 0.33 0.34 0.50 0.60 0.64 0.79 1.11 1.14 0.94 0.85 0.97 1.08 1.09 1.08 1.26 1.48 1.49 1.33 1.29 1.35 1.48 1.64 1.82 1.97 2.14 2.22 2.40 2.72 3.02 3.04 2.84 2.83 2.98 2.87 2.99 3.08 2.89 2.66 2.56 2.71 2.79
0.68 0.68 0.52 0.48 0.43 0.38 0.30 0.28 0.38 0.41 0.68 0.83 0.86 0.88 1.24 1.33 1.01 0.93 1.13 1.27 1.25 1.10 1.21 1.34 1.41 1.33 1.30 1.40 1.61 1.74 1.83 2.01 2.19 2.21 2.41 2.81 3.01 2.98 2.79 2.72 2.76 2.79 2.93 2.78 2.63 2.64 2.49 2.51 2.71
0.34 0.41 0.34 0.36 0.39 0.35 0.29 0.27 0.36 0.43 0.59 0.66 0.80 1.00 1.33 1.23 0.95 1.01 1.21 1.36 1.30 1.24 1.30 1.29 1.36 1.25 1.21 1.36 1.74 2.00 2.09 2.25 2.41 2.49 2.65 3.08 3.16 3.07 2.88 2.64 2.69 2.73 2.73 2.68 2.64 2.65 2.58 2.58 2.79
0.25 0.31 0.30 0.27 0.25 0.27 0.22 0.24 0.28 0.45 0.51 0.53 0.68 0.87 1.14 0.96 0.94 1.15 1.43 1.53 1.45 1.43 1.53 1.45 1.50 1.29 1.32 1.39 1.70 2.09 2.23 2.45 2.75 3.02 3.26 3.57 3.68 3.36 3.27 2.87 3.08 3.08 2.97 3.01 2.99 2.98 2.92 2.84 2.97
0.23 0.24 0.19 0.14 0.14 0.18 0.18 0.23 0.29 0.44 0.82 1.00 1.13 1.09 0.98 1.01 1.09 1.22 1.43 1.58 1.61 1.65 1.47 1.50 1.57 1.45 1.56 1.54 1.86 2.46 2.51 2.74 3.05 3.34 3.46 3.67 3.80 3.79 3.30 3.50 3.89 3.96 3.93 3.95 3.92 3.87 3.57 3.06 2.88
0.17 0.14 0.11 0.11 0.10 0.12 0.15 0.20 0.21 0.38 0.94 1.46 1.59 1.26 0.97 1.14 1.31 1.49 1.58 1.67 1.59 1.63 1.48 1.60 1.72 1.84 1.91 2.20 2.02 2.22 2.65 3.00 3.14 3.41 3.72 3.81 3.59 3.52 3.46 3.83 4.36 4.51 4.45 4.34 4.29 4.23 3.64 3.33 3.38
0.10 0.08 0.09 0.08 0.09 0.11 0.14 0.19 0.23 0.38 0.87 1.27 1.29 1.09 0.98 1.23 1.40 1.66 1.83 2.05 2.12 2.10 2.10 2.06 2.25 2.50 2.52 2.30 2.26 2.13 2.25 2.55 2.99 3.36 3.36 3.53 3.93 3.96 3.73 3.85 4.05 4.24 4.36 4.58 4.19 4.08 3.95 3.80 3.51
0.08 0.07 0.08 0.10 0.13 0.15 0.18 0.19 0.28 0.50 0.61 0.68 0.80 0.87 1.04 1.33 1.63 1.97 2.22 2.49 2.61 2.89 3.05 3.02 3.02 2.98 3.03 3.03 2.88 2.43 2.57 2.56 2.68 3.18 3.29 3.35 3.82 4.12 4.07 4.01 4.16 3.80 3.86 4.23 4.29 3.92 3.95 4.02 3.78
0.08 0.08 0.08 0.11 0.14 0.18 0.20 0.25 0.34 0.60 0.64 0.68 0.76 0.82 0.99 1.45 1.97 2.40 2.52 2.71 2.98 3.66 4.16 3.95 3.81 3.56 3.46 3.51 3.49 3.41 3.06 2.96 2.79 3.10 3.26 3.41 3.78 4.06 4.15 4.11 4.14 3.71 3.56 3.74 3.89 3.80 3.97 3.94 3.83
0.11 0.12 0.15 0.15 0.15 0.22 0.30 0.47 0.56 0.72 0.72 0.74 0.86 0.92 1.05 1.44 1.84 2.54 2.94 3.26 3.55 4.32 4.92 4.69 4.57 4.56 4.36 4.27 3.95 3.56 3.29 3.10 3.29 3.48 3.65 3.74 3.82 4.11 4.28 4.22 4.03 3.87 3.80 3.81 3.77 3.81 4.11 3.84 3.68
0.18 0.19 0.32 0.26 0.20 0.23 0.37 0.83 0.85 0.82 0.74 0.83 1.05 0.99 1.01 1.31 1.80 2.50 3.16 3.77 4.12 4.49 4.96 5.33 4.96 5.37 5.33 5.12 4.73 4.25 3.94 3.92 3.86 3.78 3.94 3.76 3.70 3.81 4.19 4.00 3.69 3.88 3.98 4.04 4.00 3.95 4.08 4.10 4.15
0.24 0.29 0.42 0.39 0.26 0.25 0.36 0.91 0.96 0.71 0.72 0.88 1.07 1.09 1.11 1.37 1.74 2.24 2.91 3.57 4.16 4.74 5.31 5.82 6.01 6.10 5.70 5.42 5.16 4.97 4.62 4.31 3.88 3.48 3.42 3.31 3.10 3.10 3.30 3.24 3.25 3.28 3.48 3.41 3.18 3.58 3.80 4.03 4.19
0.24 0.26 0.32 0.48 0.38 0.28 0.38 0.71 0.84 0.75 0.72 0.91 1.14 1.13 1.18 1.39 1.79 2.20 2.76 3.26 3.96 4.86 5.75 6.21 6.38 6.00 5.56 5.24 4.92 4.85 4.46 4.06 3.70 3.29 3.03 2.87 2.85 2.72 2.92 2.73 2.80 2.99 3.24 3.29 3.34 3.57 3.50 3.44 3.62
0.18 0.23 0.28 0.39 0.31 0.31 0.46 0.72 0.84 0.84 0.87 1.01 1.21 1.22 1.24 1.35 1.75 2.23 2.75 3.24 3.94 4.90 5.90 6.36 6.24 5.65 5.11 4.68 4.34 4.13 3.79 3.49 3.36 3.05 2.69 2.67 2.67 2.71 3.01 2.72 3.05 3.07 3.15 3.12 3.03 3.15 3.13 2.89 3.03
0.17 0.25 0.29 0.36 0.30 0.34 0.49 0.79 0.97 1.06 1.12 1.05 1.13 1.25 1.19 1.36 1.81 2.33 2.92 3.30 3.65 4.21 5.02 5.43 5.17 4.59 3.92 3.64 3.60 3.60 3.53 3.13 2.89 2.81 2.78 2.48 2.50 2.59 2.67 2.84 2.68 2.73 2.94 2.84 2.78 3.09 3.08 2.75 2.83
0.18 0.22 0.28 0.34 0.31 0.40 0.55 1.03 1.32 1.30 1.05 0.86 0.79 0.95 1.00 1.11 1.61 2.34 2.89 3.17 3.44 3.69 3.72 3.89 3.84 3.42 3.11 3.03 3.04 3.09 3.26 3.03 2.72 2.63 2.58 2.35 2.26 2.24 2.40 2.50 2.62 2.72 2.62 2.73 2.81 2.87 3.00 2.94 2.77
0.18 0.15 0.16 0.23 0.34 0.57 0.64 1.44 1.71 1.41 1.17 0.95 0.80 0.81 0.89 1.05 1.46 2.20 2.51 2.64 2.69 2.77 2.59 2.65 2.81 2.74 2.72 2.63 2.63 2.53 2.42 2.43 2.33 2.33 2.30 2.28 2.17 2.10 2.03 2.17 2.42 2.56 2.51 2.76 2.50 2.62 2.90 3.03 2.80
0.16 0.13 0.14 0.22 0.38 0.58 0.82 1.35 1.80 1.56 1.35 1.02 0.78 0.74 0.90 0.95 1.17 1.50 1.63 1.77 1.83 1.88 1.91 2.14 2.49 2.62 2.54 2.45 2.55 2.57 2.28 2.16 2.11 2.16 2.30 2.26 2.16 2.07 1.95 2.01 2.23 2.37 2.43 2.54 2.57 2.86 2.81 2.73 2.72
0.13 0.17 0.23 0.39 0.58 1.03 1.08 1.26 1.70 1.51 1.20 0.84 0.69 0.69 0.63 0.68 0.87 1.06 1.16 1.25 1.32 1.36 1.48 1.74 2.18 2.39 2.28 2.27 2.31 2.27 2.22 2.20 2.14 2.09 2.14 2.12 2.08 2.15 2.23 2.18 2.24 2.21 2.24 2.32 2.45 2.69 2.69 2.64 2.69
0.13 0.19 0.48 0.92 1.38 1.53 0.99 1.16 1.52 1.15 0.83 0.63 0.52 0.53 0.55 0.69 0.78 0.91 1.11 1.18 1.13 1.10 1.23 1.40 1.71 1.85 1.83 1.93 2.08 2.15 2.21 2.18 2.04 1.98 1.94 1.91 1.76 1.86 2.12 2.27 2.34 2.35 2.34 2.28 2.39 2.47 2.46 2.52 2.67
0.16 0.18 0.37 0.67 0.82 0.97 0.94 1.40 1.54 0.90 0.66 0.55 0.49 0.46 0.58 0.67 0.67 0.75 0.89 0.91 0.92 0.99 1.06 1.20 1.35 1.43 1.51 1.62 1.83 2.01 2.03 2.00 1.96 2.09 1.97 1.81 1.61 1.56 1.77 2.04 2.15 2.15 2.12 2.11 2.54 2.34 2.28 2.44 2.53
0.14 0.15 0.17 0.24 0.35 0.70 1.11 1.38 1.26 0.84 0.60 0.52 0.48 0.43 0.53 0.55 0.51 0.57 0.68 0.74 0.78 0.95 1.05 1.09 1.19 1.28 1.38 1.46 1.72 1.89 1.90 1.84 1.88 1.98 1.89 1.71 1.72 1.61 1.68 1.73 2.00 2.11 2.06 2.10 2.33 2.28 2.24 2.40 2.40
0.12 0.13 0.14 0.19 0.37 0.69 1.11 1.50 1.42 1.09 0.77 0.66 0.52 0.42 0.48 0.48 0.48 0.55 0.61 0.69 0.69 0.72 0.88 0.99 1.06 1.23 1.39 1.47 1.52 1.56 1.70 1.67 1.66 1.62 1.60 1.68 1.72 1.67 1.72 1.78 1.78 1.89 2.03 2.14 2.28 2.15 2.10 2.24 2.33
0.13 0.11 0.12 0.15 0.22 0.49 0.97 1.25 0.93 0.80 0.64 0.63 0.58 0.53 0.52 0.55 0.57 0.57 0.65 0.65 0.63 0.63 0.78 0.91 1.00 1.13 1.24 1.27 1.31 1.40 1.49 1.46 1.42 1.42 1.41 1.53 1.57 1.61 1.62 1.66 1.72 1.73 1.83 2.10 2.39 2.31 2.30 2.33 2.35
0.11 0.09 0.11 0.16 0.20 0.27 0.58 0.79 0.54 0.55 0.53 0.58 0.61 0.64 0.68 0.73 0.73 0.72 0.75 0.71 0.71 0.73 0.77 0.87 0.87 0.93 1.02 1.09 1.17 1.22 1.34 1.35 1.34 1.37 1.50 1.57 1.55 1.49 1.41 1.48 1.55 1.51 1.62 1.88 2.19 2.36 2.48 2.61 2.58